"Time","Value","Approval","myLocation"
"2023-05-06 00:00",57.9098388513568,"Working","OW427"
"2023-05-06 01:00",57.9146425707935,"Working","OW427"
"2023-05-06 02:00",57.9188462902301,"Working","OW427"
"2023-05-06 03:00",57.9245500096668,"Working","OW427"
"2023-05-06 04:00",57.9272537291034,"Working","OW427"
"2023-05-06 05:00",57.9298574485401,"Working","OW427"
"2023-05-06 06:00",57.9306611679767,"Working","OW427"
"2023-05-06 07:00",57.9307648874134,"Working","OW427"
"2023-05-06 08:00",57.9301686068501,"Working","OW427"
"2023-05-06 09:00",57.9312723262867,"Working","OW427"
"2023-05-06 10:00",57.9300760457234,"Working","OW427"
"2023-05-06 11:00",57.92947976516,"Working","OW427"
"2023-05-06 12:00",57.9316834845967,"Working","OW427"
"2023-05-06 13:00",57.9296872040333,"Working","OW427"
"2023-05-06 14:00",57.93069092347,"Working","OW427"
"2023-05-06 15:00",57.9327946429067,"Working","OW427"
"2023-05-06 16:00",57.9355983623433,"Working","OW427"
"2023-05-06 17:00",57.93460208178,"Working","OW427"
"2023-05-06 18:00",57.9352058012166,"Working","OW427"
"2023-05-06 19:00",57.9350095206533,"Working","OW427"
"2023-05-06 20:00",57.9353132400899,"Working","OW427"
"2023-05-06 21:00",57.9349169595266,"Working","OW427"
"2023-05-06 22:00",57.9372206789633,"Working","OW427"
"2023-05-06 23:00",57.9394243983999,"Working","OW427"
"2023-05-07 00:00",57.9405281178366,"Working","OW427"
"2023-05-07 01:00",57.9420318372732,"Working","OW427"
"2023-05-07 02:00",57.9446355567099,"Working","OW427"
"2023-05-07 03:00",57.9466392761465,"Working","OW427"
"2023-05-07 04:00",57.9493429955832,"Working","OW427"
"2023-05-07 05:00",57.9497467150198,"Working","OW427"
"2023-05-07 06:00",57.9508504344565,"Working","OW427"
"2023-05-07 07:00",57.9511541538932,"Working","OW427"
"2023-05-07 08:00",57.9516578733298,"Working","OW427"
"2023-05-07 09:00",57.9531615927665,"Working","OW427"
"2023-05-07 10:00",57.9561653122031,"Working","OW427"
"2023-05-07 11:00",57.9561690316398,"Working","OW427"
"2023-05-07 12:00",57.9568727510764,"Working","OW427"
"2023-05-07 13:00",57.9570764705131,"Working","OW427"
"2023-05-07 14:00",57.9605801899498,"Working","OW427"
"2023-05-07 15:00",57.9635839093864,"Working","OW427"
"2023-05-07 16:00",57.9655876288231,"Working","OW427"
"2023-05-07 17:00",57.9661913482597,"Working","OW427"
"2023-05-07 18:00",57.9673950676964,"Working","OW427"
"2023-05-07 19:00",57.968298787133,"Working","OW427"
"2023-05-07 20:00",57.9664025065697,"Working","OW427"
"2023-05-07 21:00",57.9665062260064,"Working","OW427"
"2023-05-07 22:00",57.969009945443,"Working","OW427"
"2023-05-07 23:00",57.9692136648797,"Working","OW427"
"2023-05-08 00:00",57.9678173843163,"Working","OW427"
"2023-05-08 01:00",57.967621103753,"Working","OW427"
"2023-05-08 02:00",57.9643248231896,"Working","OW427"
"2023-05-08 03:00",57.9644285426263,"Working","OW427"
"2023-05-08 04:00",57.9652322620629,"Working","OW427"
"2023-05-08 05:00",57.9672359814996,"Working","OW427"
"2023-05-08 06:00",57.9676397009363,"Working","OW427"
"2023-05-08 07:00",57.9691434203729,"Working","OW427"
"2023-05-08 08:00",57.9661471398096,"Working","OW427"
"2023-05-08 09:00",57.9659508592462,"Working","OW427"
"2023-05-08 10:00",57.9662545786829,"Working","OW427"
"2023-05-08 11:00",57.9654582981195,"Working","OW427"
"2023-05-08 12:00",57.9635620175562,"Working","OW427"
"2023-05-08 13:00",57.9649657369928,"Working","OW427"
"2023-05-08 14:00",57.9651694564295,"Working","OW427"
"2023-05-08 15:00",57.9654731758662,"Working","OW427"
"2023-05-08 16:00",57.9634768953028,"Working","OW427"
"2023-05-08 17:00",57.9624806147395,"Working","OW427"
"2023-05-08 18:00",57.9617843341761,"Working","OW427"
"2023-05-08 19:00",57.9612880536128,"Working","OW427"
"2023-05-08 20:00",57.9586917730494,"Working","OW427"
"2023-05-08 21:00",57.9558954924861,"Working","OW427"
"2023-05-08 22:00",57.9535992119228,"Working","OW427"
"2023-05-08 23:00",57.9514029313594,"Working","OW427"
"2023-05-09 00:00",57.9492066507961,"Working","OW427"
"2023-05-09 01:00",57.9509103702327,"Working","OW427"
"2023-05-09 02:00",57.9488140896694,"Working","OW427"
"2023-05-09 03:00",57.951817809106,"Working","OW427"
"2023-05-09 04:00",57.9545215285427,"Working","OW427"
"2023-05-09 05:00",57.9591252479794,"Working","OW427"
"2023-05-09 06:00",57.961228967416,"Working","OW427"
"2023-05-09 07:00",57.9643326868527,"Working","OW427"
"2023-05-09 08:00",57.9675364062893,"Working","OW427"
"2023-05-09 09:00",57.970140125726,"Working","OW427"
"2023-05-09 10:00",57.9758438451626,"Working","OW427"
"2023-05-09 11:00",57.9807475645993,"Working","OW427"
"2023-05-09 12:00",57.9827512840359,"Working","OW427"
"2023-05-09 13:00",57.9874550034726,"Working","OW427"
"2023-05-09 14:00",57.9906587229093,"Working","OW427"
"2023-05-09 15:00",57.9981624423459,"Working","OW427"
"2023-05-09 16:00",57.9987661617826,"Working","OW427"
"2023-05-09 17:00",57.9992698812192,"Working","OW427"
"2023-05-09 18:00",58.0000736006559,"Working","OW427"
"2023-05-09 19:00",58.0027773200925,"Working","OW427"
"2023-05-09 20:00",58.0004810395292,"Working","OW427"
"2023-05-09 21:00",57.9993847589659,"Working","OW427"
"2023-05-09 22:00",57.9971884784025,"Working","OW427"
"2023-05-09 23:00",57.9949921978392,"Working","OW427"
"2023-05-10 00:00",57.9923959172758,"Working","OW427"
"2023-05-10 01:00",57.9910996367125,"Working","OW427"
"2023-05-10 02:00",57.9909033561491,"Working","OW427"
"2023-05-10 03:00",57.9915070755858,"Working","OW427"
"2023-05-10 04:00",57.9952107950224,"Working","OW427"
"2023-05-10 05:00",57.9980145144591,"Working","OW427"
"2023-05-10 06:00",57.9943182338958,"Working","OW427"
"2023-05-10 07:00",57.9936219533324,"Working","OW427"
"2023-05-10 08:00",57.9949256727691,"Working","OW427"
"2023-05-10 09:00",57.9942293922057,"Working","OW427"
"2023-05-10 10:00",57.9945331116424,"Working","OW427"
"2023-05-10 11:00",57.995036831079,"Working","OW427"
"2023-05-10 12:00",57.9931405505157,"Working","OW427"
"2023-05-10 13:00",57.9913442699524,"Working","OW427"
"2023-05-10 14:00",57.991347989389,"Working","OW427"
"2023-05-10 15:00",57.9921517088257,"Working","OW427"
"2023-05-10 16:00",57.9923554282623,"Working","OW427"
"2023-05-10 17:00",57.991059147699,"Working","OW427"
"2023-05-10 18:00",57.9922628671356,"Working","OW427"
"2023-05-10 19:00",57.9903665865723,"Working","OW427"
"2023-05-10 20:00",57.9877703060089,"Working","OW427"
"2023-05-10 21:00",57.9835740254456,"Working","OW427"
"2023-05-10 22:00",57.9812777448823,"Working","OW427"
"2023-05-10 23:00",57.9769814643189,"Working","OW427"
"2023-05-11 00:00",57.9736851837556,"Working","OW427"
"2023-05-11 01:00",57.9703889031922,"Working","OW427"
"2023-05-11 02:00",57.9683926226289,"Working","OW427"
"2023-05-11 03:00",57.9725963420655,"Working","OW427"
"2023-05-11 04:00",57.9756000615022,"Working","OW427"
"2023-05-11 05:00",57.9813037809389,"Working","OW427"
"2023-05-11 06:00",57.9824075003755,"Working","OW427"
"2023-05-11 07:00",57.9831112198122,"Working","OW427"
"2023-05-11 08:00",57.9867149392488,"Working","OW427"
"2023-05-11 09:00",57.9914186586855,"Working","OW427"
"2023-05-11 10:00",57.9919223781221,"Working","OW427"
"2023-05-11 11:00",57.9976260975588,"Working","OW427"
"2023-05-11 12:00",57.9980298169955,"Working","OW427"
"2023-05-11 13:00",58.0006335364321,"Working","OW427"
"2023-05-11 14:00",58.0057372558688,"Working","OW427"
"2023-05-11 15:00",58.0119409753054,"Working","OW427"
"2023-05-11 16:00",58.0155446947421,"Working","OW427"
"2023-05-11 17:00",58.0166484141787,"Working","OW427"
"2023-05-11 18:00",58.0176521336154,"Working","OW427"
"2023-05-11 19:00",58.019055853052,"Working","OW427"
"2023-05-11 20:00",58.0180595724887,"Working","OW427"
"2023-05-11 21:00",58.0177632919254,"Working","OW427"
"2023-05-11 22:00",58.014367011362,"Working","OW427"
"2023-05-11 23:00",58.0108707307987,"Working","OW427"
"2023-05-12 00:00",58.0091744502353,"Working","OW427"
"2023-05-12 01:00",58.007478169672,"Working","OW427"
"2023-05-12 02:00",58.0081818891086,"Working","OW427"
"2023-05-12 03:00",58.0089856085453,"Working","OW427"
"2023-05-12 04:00",58.009689327982,"Working","OW427"
"2023-05-12 05:00",58.0135930474186,"Working","OW427"
"2023-05-12 06:00",58.0154967668553,"Working","OW427"
"2023-05-12 07:00",58.0163004862919,"Working","OW427"
"2023-05-12 08:00",58.0205042057286,"Working","OW427"
"2023-05-12 09:00",58.0240079251652,"Working","OW427"
"2023-05-12 10:00",58.0270116446019,"Working","OW427"
"2023-05-12 11:00",58.0287153640385,"Working","OW427"
"2023-05-12 12:00",58.0329190834752,"Working","OW427"
"2023-05-12 13:00",58.0351228029119,"Working","OW427"
"2023-05-12 14:00",58.0398265223485,"Working","OW427"
"2023-05-12 15:00",58.0453302417852,"Working","OW427"
"2023-05-12 16:00",58.0503339612218,"Working","OW427"
"2023-05-12 17:00",58.0523376806585,"Working","OW427"
"2023-05-12 18:00",58.0549414000951,"Working","OW427"
"2023-05-12 19:00",58.0537451195318,"Working","OW427"
"2023-05-12 20:00",58.0533488389685,"Working","OW427"
"2023-05-12 21:00",58.0541525584051,"Working","OW427"
"2023-05-12 22:00",58.0529562778418,"Working","OW427"
"2023-05-12 23:00",58.0490599972784,"Working","OW427"
"2023-05-13 00:00",58.0458637167151,"Working","OW427"
"2023-05-13 01:00",58.0438674361517,"Working","OW427"
"2023-05-13 02:00",58.0422711555884,"Working","OW427"
"2023-05-13 03:00",58.0422748750251,"Working","OW427"
"2023-05-13 04:00",58.0437785944617,"Working","OW427"
"2023-05-13 05:00",58.0459823138984,"Working","OW427"
"2023-05-13 06:00",58.047286033335,"Working","OW427"
"2023-05-13 07:00",58.0527897527717,"Working","OW427"
"2023-05-13 08:00",58.0566934722083,"Working","OW427"
"2023-05-13 09:00",58.060397191645,"Working","OW427"
"2023-05-13 10:00",58.0610009110816,"Working","OW427"
"2023-05-13 11:00",58.0611046305183,"Working","OW427"
"2023-05-13 12:00",58.065808349955,"Working","OW427"
"2023-05-13 13:00",58.0681120693916,"Working","OW427"
"2023-05-13 14:00",58.0705157888283,"Working","OW427"
"2023-05-13 15:00",58.0723195082649,"Working","OW427"
"2023-05-13 16:00",58.0741232277016,"Working","OW427"
"2023-05-13 17:00",58.0749269471382,"Working","OW427"
"2023-05-13 18:00",58.0743306665749,"Working","OW427"
"2023-05-13 19:00",58.0751343860116,"Working","OW427"
"2023-05-13 20:00",58.0707381054482,"Working","OW427"
"2023-05-13 21:00",58.0686418248849,"Working","OW427"
"2023-05-13 22:00",58.0621455443215,"Working","OW427"
"2023-05-13 23:00",58.0540492637582,"Working","OW427"
"2023-05-14 00:00",58.0471529831948,"Working","OW427"
"2023-05-14 01:00",58.0394567026315,"Working","OW427"
"2023-05-14 02:00",58.0357604220682,"Working","OW427"
"2023-05-14 03:00",58.0319641415048,"Working","OW427"
"2023-05-14 04:00",58.0300678609415,"Working","OW427"
"2023-05-14 05:00",58.0298715803781,"Working","OW427"
"2023-05-14 06:00",58.0285752998148,"Working","OW427"
"2023-05-14 07:00",58.0264790192514,"Working","OW427"
"2023-05-14 08:00",58.0279827386881,"Working","OW427"
"2023-05-14 09:00",58.0296864581247,"Working","OW427"
"2023-05-14 10:00",58.0283901775614,"Working","OW427"
"2023-05-14 11:00",58.0284938969981,"Working","OW427"
"2023-05-14 12:00",58.0272976164347,"Working","OW427"
"2023-05-14 13:00",58.0233013358714,"Working","OW427"
"2023-05-14 14:00",58.022405055308,"Working","OW427"
"2023-05-14 15:00",58.0207087747447,"Working","OW427"
"2023-05-14 16:00",58.0184124941813,"Working","OW427"
"2023-05-14 17:00",58.015016213618,"Working","OW427"
"2023-05-14 18:00",58.0119199330546,"Working","OW427"
"2023-05-14 19:00",58.0040236524913,"Working","OW427"
"2023-05-14 20:00",57.996727371928,"Working","OW427"
"2023-05-14 21:00",57.9891310913646,"Working","OW427"
"2023-05-14 22:00",57.9846348108013,"Working","OW427"
"2023-05-14 23:00",57.9776385302379,"Working","OW427"
"2023-05-15 00:00",57.9719422496746,"Working","OW427"
"2023-05-15 01:00",57.9685459691112,"Working","OW427"
"2023-05-15 02:00",57.9647496885479,"Working","OW427"
"2023-05-15 03:00",57.9627534079846,"Working","OW427"
"2023-05-15 04:00",57.9615571274212,"Working","OW427"
"2023-05-15 05:00",57.9644608468579,"Working","OW427"
"2023-05-15 06:00",57.9636645662945,"Working","OW427"
"2023-05-15 07:00",57.9651682857312,"Working","OW427"
"2023-05-15 08:00",57.9688720051678,"Working","OW427"
"2023-05-15 09:00",57.9711757246045,"Working","OW427"
"2023-05-15 10:00",57.9717794440411,"Working","OW427"
"2023-05-15 11:00",57.9705831634778,"Working","OW427"
"2023-05-15 12:00",57.9697868829145,"Working","OW427"
"2023-05-15 13:00",57.9701906023511,"Working","OW427"
"2023-05-15 14:00",57.9697943217878,"Working","OW427"
"2023-05-15 15:00",57.9692980412244,"Working","OW427"
"2023-05-15 16:00",57.9670017606611,"Working","OW427"
"2023-05-15 17:00",57.9648054800977,"Working","OW427"
"2023-05-15 18:00",57.9654091995344,"Working","OW427"
"2023-05-15 19:00",57.9633129189711,"Working","OW427"
"2023-05-15 20:00",57.9618166384077,"Working","OW427"
"2023-05-15 21:00",57.9593203578444,"Working","OW427"
"2023-05-15 22:00",57.953724077281,"Working","OW427"
"2023-05-15 23:00",57.9491277967177,"Working","OW427"
"2023-05-16 00:00",57.9438315161543,"Working","OW427"
"2023-05-16 01:00",57.940735235591,"Working","OW427"
"2023-05-16 02:00",57.9361389550277,"Working","OW427"
"2023-05-16 03:00",57.9368426744643,"Working","OW427"
"2023-05-16 04:00",57.938746393901,"Working","OW427"
"2023-05-16 05:00",57.9446501133376,"Working","OW427"
"2023-05-16 06:00",57.9463538327743,"Working","OW427"
"2023-05-16 07:00",57.9516575522109,"Working","OW427"
"2023-05-16 08:00",57.9627612716476,"Working","OW427"
"2023-05-16 09:00",57.9685649910842,"Working","OW427"
"2023-05-16 10:00",57.9751687105209,"Working","OW427"
"2023-05-16 11:00",57.9808724299576,"Working","OW427"
"2023-05-16 12:00",57.9862761493942,"Working","OW427"
"2023-05-16 13:00",57.9894798688309,"Working","OW427"
"2023-05-16 14:00",57.9941835882675,"Working","OW427"
"2023-05-16 15:00",57.9985873077042,"Working","OW427"
"2023-05-16 16:00",58.0018910271408,"Working","OW427"
"2023-05-16 17:00",58.0059947465775,"Working","OW427"
"2023-05-16 18:00",58.0059984660142,"Working","OW427"
"2023-05-16 19:00",58.0073021854508,"Working","OW427"
"2023-05-16 20:00",58.0027059048875,"Working","OW427"
"2023-05-16 21:00",58.0001096243241,"Working","OW427"
"2023-05-16 22:00",57.9943133437608,"Working","OW427"
"2023-05-16 23:00",57.9867170631974,"Working","OW427"
"2023-05-17 00:00",57.9789207826341,"Working","OW427"
"2023-05-17 01:00",57.9722245020708,"Working","OW427"
"2023-05-17 02:00",57.9693282215074,"Working","OW427"
"2023-05-17 03:00",57.9673319409441,"Working","OW427"
"2023-05-17 04:00",57.9682356603807,"Working","OW427"
"2023-05-17 05:00",57.9725393798174,"Working","OW427"
"2023-05-17 06:00",57.977543099254,"Working","OW427"
"2023-05-17 07:00",57.9788468186907,"Working","OW427"
"2023-05-17 08:00",57.9744505381273,"Working","OW427"
"2023-05-17 09:00",57.975554257564,"Working","OW427"
"2023-05-17 10:00",57.9757579770007,"Working","OW427"
"2023-05-17 11:00",57.9778616964373,"Working","OW427"
"2023-05-17 12:00",57.977465415874,"Working","OW427"
"2023-05-17 13:00",57.9756691353106,"Working","OW427"
"2023-05-17 14:00",57.9766728547473,"Working","OW427"
"2023-05-17 15:00",57.9741765741839,"Working","OW427"
"2023-05-17 16:00",57.9707802936206,"Working","OW427"
"2023-05-17 17:00",57.9665840130573,"Working","OW427"
"2023-05-17 18:00",57.9646877324939,"Working","OW427"
"2023-05-17 19:00",57.9612914519306,"Working","OW427"
"2023-05-17 20:00",57.9542951713672,"Working","OW427"
"2023-05-17 21:00",57.9470988908039,"Working","OW427"
"2023-05-17 22:00",57.9415026102405,"Working","OW427"
"2023-05-17 23:00",57.9326063296772,"Working","OW427"
"2023-05-18 00:00",57.9245100491138,"Working","OW427"
"2023-05-18 01:00",57.9162137685505,"Working","OW427"
"2023-05-18 02:00",57.9111174879872,"Working","OW427"
"2023-05-18 03:00",57.9094212074238,"Working","OW427"
"2023-05-18 04:00",57.9089249268605,"Working","OW427"
"2023-05-18 05:00",57.9106286462971,"Working","OW427"
"2023-05-18 06:00",57.9115323657338,"Working","OW427"
"2023-05-18 07:00",57.9137360851704,"Working","OW427"
"2023-05-18 08:00",57.9130398046071,"Working","OW427"
"2023-05-18 09:00",57.9152435240438,"Working","OW427"
"2023-05-18 10:00",57.9156472434804,"Working","OW427"
"2023-05-18 11:00",57.9159509629171,"Working","OW427"
"2023-05-18 12:00",57.9182546823537,"Working","OW427"
"2023-05-18 13:00",57.9173584017904,"Working","OW427"
"2023-05-18 14:00",57.919862121227,"Working","OW427"
"2023-05-18 15:00",57.9233658406637,"Working","OW427"
"2023-05-18 16:00",57.9257695601003,"Working","OW427"
"2023-05-18 17:00",57.929073279537,"Working","OW427"
"2023-05-18 18:00",57.9305769989737,"Working","OW427"
"2023-05-18 19:00",57.9306807184103,"Working","OW427"
"2023-05-18 20:00",57.931684437847,"Working","OW427"
"2023-05-18 21:00",57.9376881572836,"Working","OW427"
"2023-05-18 22:00",57.9361918767203,"Working","OW427"
"2023-05-18 23:00",57.9376955961569,"Working","OW427"
"2023-05-19 00:00",57.9378993155936,"Working","OW427"
"2023-05-19 01:00",57.9384030350303,"Working","OW427"
"2023-05-19 02:00",57.9393067544669,"Working","OW427"
"2023-05-19 03:00",57.9420104739036,"Working","OW427"
"2023-05-19 04:00",57.9450141933402,"Working","OW427"
"2023-05-19 05:00",57.9506179127769,"Working","OW427"
"2023-05-19 06:00",57.9555216322135,"Working","OW427"
"2023-05-19 07:00",57.9627253516502,"Working","OW427"
"2023-05-19 08:00",57.9722290710869,"Working","OW427"
"2023-05-19 09:00",57.9773327905235,"Working","OW427"
"2023-05-19 10:00",57.9827365099602,"Working","OW427"
"2023-05-19 11:00",57.9855402293968,"Working","OW427"
"2023-05-19 12:00",57.9893439488335,"Working","OW427"
"2023-05-19 13:00",57.9937476682701,"Working","OW427"
"2023-05-19 14:00",58.0005513877068,"Working","OW427"
"2023-05-19 15:00",58.0049551071434,"Working","OW427"
"2023-05-19 16:00",58.0076588265801,"Working","OW427"
"2023-05-19 17:00",58.0086625460168,"Working","OW427"
"2023-05-19 18:00",58.0089662654534,"Working","OW427"
"2023-05-19 19:00",58.0058699848901,"Working","OW427"
"2023-05-19 20:00",58.0046737043267,"Working","OW427"
"2023-05-19 21:00",58.0010774237634,"Working","OW427"
"2023-05-19 22:00",57.9986811432,"Working","OW427"
"2023-05-19 23:00",57.9929848626367,"Working","OW427"
"2023-05-20 00:00",57.9853885820733,"Working","OW427"
"2023-05-20 01:00",57.97999230151,"Working","OW427"
"2023-05-20 02:00",57.9733960209467,"Working","OW427"
"2023-05-20 03:00",57.9699997403833,"Working","OW427"
"2023-05-20 04:00",57.97170345982,"Working","OW427"
"2023-05-20 05:00",57.9735071792566,"Working","OW427"
"2023-05-20 06:00",57.9762108986933,"Working","OW427"
"2023-05-20 07:00",57.9835146181299,"Working","OW427"
"2023-05-20 08:00",57.9866183375666,"Working","OW427"
"2023-05-20 09:00",57.9894220570033,"Working","OW427"
"2023-05-20 10:00",57.9912257764399,"Working","OW427"
"2023-05-20 11:00",57.9897294958766,"Working","OW427"
"2023-05-20 12:00",57.9932332153132,"Working","OW427"
"2023-05-20 13:00",57.9964369347499,"Working","OW427"
"2023-05-20 14:00",57.9986406541865,"Working","OW427"
"2023-05-20 15:00",58.0029443736232,"Working","OW427"
"2023-05-20 16:00",58.0041480930599,"Working","OW427"
"2023-05-20 17:00",58.0032518124965,"Working","OW427"
"2023-05-20 18:00",58.0041555319332,"Working","OW427"
"2023-05-20 19:00",58.0024592513698,"Working","OW427"
"2023-05-20 20:00",57.9976629708065,"Working","OW427"
"2023-05-20 21:00",57.9947666902431,"Working","OW427"
"2023-05-20 22:00",57.9899704096798,"Working","OW427"
"2023-05-20 23:00",57.9832741291165,"Working","OW427"
"2023-05-21 00:00",57.9757778485531,"Working","OW427"
"2023-05-21 01:00",57.9705815679898,"Working","OW427"
"2023-05-21 02:00",57.9672852874264,"Working","OW427"
"2023-05-21 03:00",57.9705890068631,"Working","OW427"
"2023-05-21 04:00",57.9716927262997,"Working","OW427"
"2023-05-21 05:00",57.9797964457364,"Working","OW427"
"2023-05-21 06:00",57.981300165173,"Working","OW427"
"2023-05-21 07:00",57.9864038846097,"Working","OW427"
"2023-05-21 08:00",57.9912076040464,"Working","OW427"
"2023-05-21 09:00",57.992911323483,"Working","OW427"
"2023-05-21 10:00",57.9923150429197,"Working","OW427"
"2023-05-21 11:00",57.9928187623563,"Working","OW427"
"2023-05-21 12:00",57.994122481793,"Working","OW427"
"2023-05-21 13:00",57.9942262012296,"Working","OW427"
"2023-05-21 14:00",57.9988299206663,"Working","OW427"
"2023-05-21 15:00",58.003433640103,"Working","OW427"
"2023-05-21 16:00",58.0063373595396,"Working","OW427"
"2023-05-21 17:00",58.0090410789763,"Working","OW427"
"2023-05-21 18:00",58.0064447984129,"Working","OW427"
"2023-05-21 19:00",58.0048485178496,"Working","OW427"
"2023-05-21 20:00",58.0049522372862,"Working","OW427"
"2023-05-21 21:00",58.0018559567229,"Working","OW427"
"2023-05-21 22:00",58.0022596761595,"Working","OW427"
"2023-05-21 23:00",58.0000633955962,"Working","OW427"
"2023-05-22 00:00",57.9967671150329,"Working","OW427"
"2023-05-22 01:00",57.9961708344695,"Working","OW427"
"2023-05-22 02:00",57.9977745539062,"Working","OW427"
"2023-05-22 03:00",57.9998782733428,"Working","OW427"
"2023-05-22 04:00",58.0018819927795,"Working","OW427"
"2023-05-22 05:00",58.0036857122161,"Working","OW427"
"2023-05-22 06:00",58.0044894316528,"Working","OW427"
"2023-05-22 07:00",58.0039931510895,"Working","OW427"
"2023-05-22 08:00",58.0047968705261,"Working","OW427"
"2023-05-22 09:00",58.0049005899628,"Working","OW427"
"2023-05-22 10:00",58.0054043093994,"Working","OW427"
"2023-05-22 11:00",58.0065080288361,"Working","OW427"
"2023-05-22 12:00",58.0056117482727,"Working","OW427"
"2023-05-22 13:00",58.0050154677094,"Working","OW427"
"2023-05-22 14:00",58.006619187146,"Working","OW427"
"2023-05-22 15:00",58.0046229065827,"Working","OW427"
"2023-05-22 16:00",58.0037266260194,"Working","OW427"
"2023-05-22 17:00",58.001530345456,"Working","OW427"
"2023-05-22 18:00",58.0005340648927,"Working","OW427"
"2023-05-22 19:00",58.0017377843293,"Working","OW427"
"2023-05-22 20:00",58.004041503766,"Working","OW427"
"2023-05-22 21:00",58.0029452232026,"Working","OW427"
"2023-05-22 22:00",58.0017489426393,"Working","OW427"
"2023-05-22 23:00",58.000752662076,"Working","OW427"
"2023-05-23 00:00",57.9985563815126,"Working","OW427"
"2023-05-23 01:00",58.0016601009493,"Working","OW427"
"2023-05-23 02:00",58.0029638203859,"Working","OW427"
"2023-05-23 03:00",58.0027675398226,"Working","OW427"
"2023-05-23 04:00",58.0044712592592,"Working","OW427"
"2023-05-23 05:00",58.0077749786959,"Working","OW427"
"2023-05-23 06:00",58.0114786981325,"Working","OW427"
"2023-05-23 07:00",58.0145824175692,"Working","OW427"
"2023-05-23 08:00",58.0075861370059,"Working","OW427"
"2023-05-23 09:00",58.0091898564425,"Working","OW427"
"2023-05-23 10:00",58.0074935758792,"Working","OW427"
"2023-05-23 11:00",58.0071972953158,"Working","OW427"
"2023-05-23 12:00",58.0077010147525,"Working","OW427"
"2023-05-23 13:00",58.0062047341891,"Working","OW427"
"2023-05-23 14:00",58.0062084536258,"Working","OW427"
"2023-05-23 15:00",58.0026121730625,"Working","OW427"
"2023-05-23 16:00",58.0035158924991,"Working","OW427"
"2023-05-23 17:00",58.0015196119358,"Working","OW427"
"2023-05-23 18:00",57.9970233313724,"Working","OW427"
"2023-05-23 19:00",57.9983270508091,"Working","OW427"
"2023-05-23 20:00",57.9941307702457,"Working","OW427"
"2023-05-23 21:00",57.9951344896824,"Working","OW427"
"2023-05-23 22:00",57.991938209119,"Working","OW427"
"2023-05-23 23:00",57.9873419285557,"Working","OW427"
"2023-05-24 00:00",57.9879456479924,"Working","OW427"
"2023-05-24 01:00",57.985549367429,"Working","OW427"
"2023-05-24 02:00",57.9842530868657,"Working","OW427"
"2023-05-24 03:00",57.9842568063023,"Working","OW427"